Terminal Aerodrome Forecast
Issued by NWS

Home | Current Version | Previous Version | Graphics & Text | Print | Product List | Glossary On
Versions: 1 2 3 4 5 6 7 8 9 10 11 12 13 14 15 16
000
FTUS45 KGGW 142300
TAFSDY
TAF
KSDY 142320Z 1500/1524 12007KT P6SM BKN150
     FM151500 12010KT P6SM BKN250
     FM152000 27011KT P6SM BKN250
      AMD LTD TO CLD VIS AND WIND=

USA.gov is the U.S. government's official web portal to all federal, state and local government web resources and services.